This is the latest recevied weather packets stored in our database for station/object KD9ZDW. If no packets are shown the sender has not sent any weather packets the latest 10 day(s).
| Time | Temp. | Humidity | Pressure | Rain* | Wind** | Luminosity | Snow |
|---|---|---|---|---|---|---|---|
| 1777850342 | 10° C | 75% | 1013.3 hPa | 0 mm | - | 42 W/m² | - |
| 1777850039 | 10° C | 75% | 1013.4 hPa | 0 mm | - | 55 W/m² | - |
| 1777849735 | 10° C | 75% | 1013.3 hPa | 0 mm | - | 78 W/m² | - |
| 1777849432 | 10° C | 76% | 1013.4 hPa | 0 mm | - | 73 W/m² | - |
| 1777849130 | 10° C | 77% | 1013.5 hPa | 0 mm | - | 51 W/m² | - |
| 1777848825 | 10° C | 76% | 1013.6 hPa | 0 mm | - | 46 W/m² | - |
| 1777848522 | 10° C | 76% | 1013.7 hPa | 0 mm | - | 42 W/m² | - |
| 1777848219 | 10° C | 76% | 1013.6 hPa | 0 mm | - | 38 W/m² | - |
| 1777847917 | 10° C | 77% | 1013.5 hPa | 0 mm | - | 32 W/m² | - |
| 1777847614 | 10° C | 77% | 1013.7 hPa | 0 mm | - | 33 W/m² | - |
| 1777847310 | 10° C | 76% | 1013.9 hPa | 0 mm | - | 32 W/m² | - |
| 1777847009 | 10° C | 77% | 1013.9 hPa | 0 mm | - | 36 W/m² | - |
| 1777846706 | 10° C | 77% | 1014.1 hPa | 0 mm | - | 39 W/m² | - |
| 1777846405 | 10° C | 77% | 1013.7 hPa | 0 mm | - | 29 W/m² | - |
| 1777846100 | 10° C | 76% | 1013.9 hPa | 0 mm | - | 30 W/m² | - |
| 1777845798 | 10° C | 76% | 1014 hPa | 0 mm | - | 29 W/m² | - |
| 1777845494 | 10° C | 76% | 1014 hPa | 0 mm | - | 31 W/m² | - |
| 1777845192 | 10° C | 76% | 1014.2 hPa | 0 mm | - | 35 W/m² | - |
| 1777844889 | 10° C | 77% | 1014.1 hPa | 0 mm | - | 40 W/m² | - |
| 1777844586 | 10° C | 76% | 1014.1 hPa | 0 mm | - | 41 W/m² | - |
| 1777844284 | 10° C | 76% | 1014.2 hPa | 0 mm | - | 48 W/m² | - |
| 1777843981 | 10° C | 75% | 1014.3 hPa | 0 mm | - | 48 W/m² | - |
| 1777843678 | 10.56° C | 76% | 1014.6 hPa | 0 mm | - | 48 W/m² | - |
| 1777843376 | 10° C | 76% | 1014.4 hPa | 0 mm | - | 68 W/m² | - |
| 1777843073 | 10° C | 77% | 1014.8 hPa | 0 mm | - | 126 W/m² | - |
* Rain latest hour (hover to see other rain measurements)
** Current wind speed in m/s (hover to see current wind gust speed)